GUNSMOKE-J 4 (48878 NORAD) Tracking and Keplerian Element Data

This shows tracking and keplerian element data for the satellite.

Feedback or suggestion? Click here.




ElementValue
Catalog48878
NameGUNSMOKE-J 4
Epoch Orbit1809
Epoch Day300.78810722
Epoch Year2021
RAAN139.474
Inclination60.6937
Eccentricity0.0038479
Argument of Perigee20.6024
Mean Anonmoly62.7425
Mean Motion15.18821763
Decay Rate2.312E-05
L11 48878U 21058H 21300.78810722 .00002312 00000-0 12094-3 0 9999
L22 48878 60.6937 139.4740 0038479 20.6024 62.7425 15.18821763 18097

Live tracking and technical data element details for GUNSMOKE-J 4 (NORAD 48878). GUNSMOKE-J 4 can be tracked NOW for your location showing map with azimuth and elevation plus other details from your city location.

Track the satellite on the map from your city or location and see movement details for azimuth, elevation, latitude, longitude, range, height, and movement on the map or in text.







IsCatalogInMostPopularTable: catalog: 48878, numindb: 23
Update: records affected: 1



GetName: 48878 GUNSMOKE-J 4

Hit Count: updated at: Thu, 28 Oct 2021 12:05:58 GMT